Home   Weather   Bischofshofen   Past weeks

Flag for Austria Past Weather in Bischofshofen, Salzburg, Austria — Yesterday and Last 2 Weeks

Now
36 °F

Light rain. Partly cloudy.


Feels Like: 30 °F
Forecast: 27 / 49 °F
Wind: 7 mph from Southeast

Location: Salzburg-Flughafen

Current Time: Apr 29, 2017 at 1:56:19 am

Latest Report: Apr 29, 2017 at 1:20 am


Visibility: N/A

Pressure: 30.07 "Hg (28.10 "Hg at 545m altitude)

Humidity: 93%

Dew Point: 34 °F

Location of BischofshofenLocation

Past Weather in Bischofshofen — Graph

°F

Bischofshofen Temperature Yesterday

Maximum temperature yesterday: 39 °F (at 6:50 pm)
Minimum temperature yesterday: 32 °F (at 2:20 am)
Average temperature yesterday: 35 °F

High & Low Weather Summary for the Past Weeks

 TemperatureHumidityPressure
High64 °F (Apr 25, 1:50 pm)100% (Apr 18, 6:50 pm)30.51 "Hg (Apr 18, 6:50 pm)
Low30 °F (Apr 20, 3:20 am)32% (Apr 21, 5:20 pm)29.71 "Hg (Apr 25, 2:50 pm)
Average42 °F78%30.07 "Hg
* Reported Apr 14 12:20 am — Apr 29 12:50 am, Bischofshofen, Weather by CustomWeather, © 2017

Note: Actual official high and low records may vary slightly from our data, if they occured in-between our weather recording intervals... More about our weather records

Advertising

Bischofshofen Weather History for the Previous 24 Hours

Scroll right to see more
 ConditionsComfort  
Time TempWeatherWind HumidityBarometerVisibility
12:50 am
Sat, Apr 29
36 °FLight rain. Passing clouds.7 mph93%30.07 "Hg6 mi
12:20 am36 °FLight rain. Partly cloudy.3 mph93%30.07 "Hg6 mi
11:50 pm
Fri, Apr 28
36 °FLight rain. Partly cloudy.3 mph93%30.07 "Hg6 mi
11:20 pm36 °FLight rain. Passing clouds.6 mph93%30.07 "HgN/A
10:50 pm36 °FLight rain. Partly cloudy.5 mph93%30.04 "Hg5 mi
10:20 pm36 °FLight rain. Partly cloudy.2 mph100%30.04 "Hg4 mi
9:50 pm37 °FLight rain. Passing clouds.5 mph93%30.04 "Hg4 mi
9:20 pm37 °FRain. Partly cloudy.2 mph93%30.04 "Hg5 mi
8:50 pm37 °FLight rain. Partly cloudy.2 mph93%30.01 "HgN/A
8:20 pm39 °FLight rain. Partly cloudy.3 mph87%30.01 "HgN/A
7:50 pm39 °FLight rain. Broken clouds.5 mph87%29.98 "HgN/A
7:20 pm39 °FLight rain. Broken clouds.6 mph81%29.98 "HgN/A
6:50 pm39 °FLight rain. Broken clouds.5 mph81%29.98 "HgN/A
6:20 pm37 °FLight rain. Broken clouds.6 mph93%29.95 "HgN/A
5:50 pm37 °FLight rain. Broken clouds.2 mph93%29.95 "HgN/A
5:20 pm37 °FLight rain. Broken clouds.1 mph93%29.92 "HgN/A
4:50 pm37 °FLight rain. Broken clouds.2 mph87%29.92 "HgN/A
4:20 pm36 °FLight rain. Partly sunny.1 mph93%29.89 "HgN/A
3:50 pm36 °FLight rain. Broken clouds.2 mph93%29.89 "Hg4 mi
3:20 pm36 °FLight rain. Broken clouds.2 mph93%29.89 "Hg3 mi
2:50 pm34 °FLight rain. Broken clouds.1 mph93%29.89 "Hg2 mi
2:20 pm34 °FLight rain. Broken clouds.1 mph93%29.86 "Hg1 mi
1:50 pm34 °FLight snow. Broken clouds.1 mph93%29.86 "Hg1 mi
1:20 pm34 °FLight snow. Broken clouds.1 mph93%29.83 "Hg2 mi
12:50 pm34 °FSnow. Dense fog.1 mph93%29.83 "Hg1 mi
12:20 pm32 °FSnow. Dense fog.2 mph100%29.83 "Hg1 mi
11:50 am32 °FSnow. Dense fog.3 mph100%29.83 "Hg1 mi
11:20 am34 °FSnow. Broken clouds.1 mph93%29.83 "Hg1 mi
10:50 am36 °FRain. Broken clouds.6 mph93%29.80 "Hg2 mi
10:20 am36 °FLight rain. Broken clouds.3 mph87%29.83 "Hg5 mi
9:50 am36 °FLight rain. Broken clouds.6 mph93%29.80 "Hg5 mi
9:20 am36 °FLight rain. Broken clouds.6 mph93%29.80 "Hg5 mi
8:50 am34 °FLight rain. Broken clouds.5 mph93%29.83 "Hg4 mi
8:20 am34 °FLight rain. Broken clouds.3 mph93%29.83 "Hg3 mi
7:50 am34 °FLight rain. Broken clouds.6 mph93%29.83 "Hg3 mi
7:20 am34 °FLight rain. Broken clouds.3 mph93%29.83 "Hg4 mi
6:50 am34 °FLight rain. Broken clouds.5 mph93%29.83 "Hg4 mi
6:20 am32 °FLight rain. Broken clouds.3 mph100%29.83 "Hg3 mi
5:50 am32 °FLight snow. Partly cloudy.5 mph100%29.80 "Hg2 mi
5:20 am32 °FSleet. Passing clouds.6 mph100%29.83 "Hg4 mi
4:50 am32 °FLight rain. Passing clouds.5 mph100%29.83 "Hg3 mi
4:20 am32 °FLight rain. Passing clouds.5 mph100%29.83 "Hg3 mi
3:50 am32 °FLight snow. Partly cloudy.3 mph100%29.83 "Hg2 mi
3:20 am32 °FLight snow. Passing clouds.3 mph100%29.83 "Hg2 mi
2:50 am32 °FSnow. Partly cloudy.3 mph100%29.83 "Hg2 mi
2:20 am32 °FLight snow. Passing clouds.1 mph100%29.86 "Hg1 mi
1:50 am34 °FLight rain. Passing clouds.5 mph93%29.86 "Hg2 mi
1:20 am36 °FLight rain. Passing clouds.6 mph93%29.86 "Hg5 mi
Weather by CustomWeather, © 2017

See weather overviewHow to use our weather pages